Regional Weather Roundup
Issued by NWS

Home | Current Version | Previous Version | Graphics & Text | Print | Product List | Glossary Off
Versions: 1 2 3 4 5 6 7 8 9 10 11 12 13 14 15 16 17 18 19 20 21 22 23 24 25 26 27

000
ASUS45 KSLC 180610
RWRUT

UTAH REGIONAL WEATHER ROUNDUP
NATIONAL WEATHER SERVICE SALT LAKE CITY UT
1100 PM MST WED JAN 17 2018

UTZ001>011-023>025-180700-

NORTHERN UTAH

CITY           SKY/WX    TMP DP  RH WIND       PRES   REMARKS
BRIGHAM CITY   PTCLDY    33  29  83 CALM      30.34S
HILL AFB       PTCLDY    37  27  69 SE9       30.32S WCI  30
LOGAN          PTCLDY    32  25  75 CALM      30.33R
OGDEN          PTCLDY    36  28  73 CALM      30.33R
SALT LAKE CITY MOCLDY    38  30  73 SE7       30.32F WCI  33
TOOELE VALLEY  PTCLDY    32  30  93 CALM      30.32S
WENDOVER       MOCLDY    30  24  78 SW3       30.32F
HEBER CITY       N/A     28  21  74 CALM      30.34S
WEST JORDAN    PTCLDY    37  29  71 S10       30.32F WCI  30

$$

UTZ011>015-024>027-180700-

CENTRAL/NORTHEAST UTAH

CITY           SKY/WX    TMP DP  RH WIND       PRES   REMARKS
PROVO AIRPORT  CLEAR     27  24  89 CALM      30.36F
MOAB/CANYONLAN   N/A    N/A N/A N/A MISG      30.36R
DELTA          PTCLDY    30  28  93 E3        30.33F
PRICE          PTCLDY    26  20  77 N9        30.34S WCI  17
RICHFIELD      CLEAR     27  27 100 CALM      30.37S
ROOSEVELT      PTCLDY    21  14  73 W5        30.39S WCI  15
VERNAL         MOCLDY    21  13  71 W5        30.38S WCI  15

$$

UTZ013>016-019>022-027-180700-

SOUTHERN UTAH

CITY           SKY/WX    TMP DP  RH WIND       PRES   REMARKS
BRYCE CANYON   CLEAR     25  23  92 W5        30.38F WCI  19
CEDAR CITY     CLEAR     32  27  81 S5        30.33F WCI  27
MILFORD        PTCLDY    31  27  85 W8        30.33F WCI  23
ST GEORGE      CLEAR     45  33  63 SE7       30.30R
HANKSVILLE     PTCLDY    28  12  50 CALM      30.39S
KANAB          CLEAR     39  25  56 NW14      30.37S WCI  31
BLANDING         N/A     30  18  61 N3        30.40S

$$

REGIONAL REPORTS     COLORADO/ARIZONA

CITY           SKY/WX    TMP DP  RH WIND       PRES   REMARKS
CRAIG, CO      CLEAR     17   8  67 CALM      30.39R
GRAND JUNCTION CLEAR     22  13  68 E3        30.38R
RIFLE, CO      CLEAR     23  15  71 SW5       30.40R WCI  17
MONTROSE, CO   CLEAR     22  13  68 SE8       30.40R WCI  12
CORTEZ, CO     CLEAR     20  16  84 E6        30.34S WCI  12
COLORADO CITY    N/A     34  30  86 CALM      30.36S
PAGE, AZ       CLEAR     39  21  48 SE7       30.34S WCI  34
GRAND CANYON   CLEAR     22  19  89 CALM      30.36F
KINGMAN, AZ    CLEAR     47  30  51 E8        30.27R
FLAGSTAFF, AZ  PTCLDY    25  17  72 CALM      30.35S

$$

REGIONAL REPORTS    NEVADA/IDAHO/WYOMING

CITY           SKY/WX    TMP DP  RH WIND       PRES   REMARKS
LAS VEGAS, NV  MOCLDY    56  39  53 SW3       30.24R
ELY, NY        MOCLDY    29  22  75 S8        30.32F WCI  21
ELKO, NV       CLOUDY    31  27  85 E7        30.27F WCI  24
POCATELLO, ID  MOCLDY    30  28  92 N7        30.29F WCI  23
BURLEY, ID     CLOUDY    36  31  82 VRB7      30.22F WCI  30
FORT BRIDGER,    N/A     30  25  81 SW8       30.34F WCI  22
EVANSTON, WY   PTCLDY    28  24  85 SW10      30.32F WCI  19
ROCK SPRINGS,  MOCLDY    28  22  78 SW9       30.30F WCI  19

$$




USA.gov is the U.S. government's official web portal to all federal, state and local government web resources and services.